Location: Amsterdam
(30.7274°N, 84.4357°W)
Time: 05:26:07
(UTC+00:00)

Tiros 1 despin weight - Pass Details

Date: 22 February 2026
Orbit: 556 x 593 km, 48.2° (Epoch: 13 March)

Event Time Altitude Azimuth Distance (km) Brightness Sun altitude
Rises 16:58:38 0° 207° (SSW) 2,764 ? 47.4°
Reaches altitude 10° 17:01:03 10° 198° (SSW) 1,862 ? 47.5°
Maximum altitude 17:04:53 33° 133° (SE) 949 ? 47.8°
Drops below altitude 10° 17:08:42 10° 68° (ENE) 1,849 ? 48.0°
Sets 17:11:06 0° 59° (ENE) 2,742 ? 48.1°
